User: anonymous   Login
Location: Lombard
(41.8800°N, 88.0080°W)
Time: 04:38:32
(UTC-05:00)
Language:

FALCONSAT 3 - Orbit

View from above orbital plane
View from above orbital plane
View from above satellite
View from above satellite

Ground track
Ground track

The orbit data is extracted from the following two-line orbital elements,

1 30776U 07006E   22135.13969409  .00044237  00000-0  73623-3 0  9994
2 30776  35.4304 118.1558 0002218 221.6452 138.4110 15.50978870844406
Epoch (UTC): 15 May 2022 03:21:09
Eccentricity: 0.0002218
inclination: 35.4304°
perigee height: 412 km
apogee height: 415 km
right ascension of ascending node: 118.1558°
argument of perigee: 221.6452°
revolutions per day: 15.50978870
mean anomaly at epoch: 138.4110°
orbit number at epoch: 84440

The dashed part of the orbit path shows where the satellite is in the earth's shadow,  

DLR